Regional Weather Roundup
Issued by NWS Albany, NY

Home | Current Version | Previous Version | Text Only | Print | Product List | Glossary On
Versions: 1 2 3 4 5 6 7 8 9 10 11 12 13 14 15 16 17 18 19 20 21 22 23 24 25 26 27 28 29 30 31 32 33 34 35 36 37 38 39 40 41 42 43 44 45 46 47 48 49 50
000
ASUS41 KALY 181510
RWRALY

NEW YORK STATE HOURLY WEATHER ROUNDUP
NATIONAL WEATHER SERVICE ALBANY NY
1100 AM EDT SAT APR 18 2015

NOTE: "FAIR" INDICATES FEW OR NO CLOUDS BELOW 12,000 FEET WITH NO
SIGNIFICANT WEATHER AND/OR NO OBSTRUCTIONS TO VISIBILITY.

NYZ032-033-038>043-046>054-057>066-NYZ062>081-181600-
EAST


CITY           SKY/WX    TMP DP  RH WIND       PRES   REMARKS
ALBANY         MOSUNNY   66  41  40 SW8       29.94F
GLENS FALLS    SUNNY     58  45  62 MISG      29.93F
POUGHKEEPSIE   SUNNY     68  44  42 SW7       29.97S
NEWBURGH       SUNNY     66  46  48 W12       29.99F
MONTGOMERY     SUNNY     70  43  37 W13G18    29.97F
WHITE PLAINS   SUNNY     68  45  43 NW7       29.98F
ISLIP          MOSUNNY   71  44  37 W12       29.97F
NEW YORK CITY  MOSUNNY   69  43  38 W6        29.99S
CENTRAL PARK   SUNNY     71  42  35 VRB6      30.01F
$$

NYZ005>009-017-018-044>046-055-056-181600-
CENTRAL


CITY           SKY/WX    TMP DP  RH WIND       PRES   REMARKS
FULTON         PTSUNNY   63  44  50 SW10      29.92F
SYRACUSE       MOSUNNY   67  41  38 SW13      29.92F
ROME           PTSUNNY   57  44  62 MISG      29.96F
ELMIRA         SUNNY     69  43  38 SW14      29.96F
BINGHAMTON     SUNNY     62  41  46 SW10      29.97F
MONTICELLO     SUNNY     63  39  42 W10G16    30.02S
$$

NYZ026>034-041>043-181600-
NORTH


CITY           SKY/WX    TMP DP  RH WIND       PRES   REMARKS
WATERTOWN      PTSUNNY   54  44  69 W14       29.92F
FORT DRUM      NOT AVBL
MASSENA        SUNNY     57  40  52 SW14      29.89F
SARANAC LAKE   PTSUNNY   54  40  59 SW14      29.88F
PLATTSBURGH    SUNNY     49  29  46 E8        29.91F
$$

NYZ001>004-010>016-019>021-181600-
WEST


CITY           SKY/WX    TMP DP  RH WIND       PRES   REMARKS
NIAGARA FALLS  MOSUNNY   68  46  45 W17       29.97S
BUFFALO        MOSUNNY   57  44  62 SW10      29.99S
DUNKIRK        SUNNY     59  44  57 W14       30.03S
JAMESTOWN      SUNNY     64  43  45 W15G23    30.05R
WELLSVILLE     SUNNY     67  37  33 W17G24    30.02S
ROCHESTER      MOSUNNY   68  43  40 W18       29.95R
PENN YAN       MOSUNNY   70  41  34 W16G24    29.95F
$$

             KEY
       WCI = WIND CHILL INDEX
       VSB = VISIBILITY
       HX  = HEAT INDEX
$$



USA.gov is the U.S. government's official web portal to all federal, state and local government web resources and services.